sat.trackr.live / text

‹ back to catalog

ONEWEB-0092

NORAD 45437 · 2020-020P

PAYLOAD ACTIVE UNKNOWN

§ Identity

Operator
Country
UK
Launch date
2020-03-21
Launch site
TYMSC
Launch vehicle
Mass (kg)
RCS (m²)

Purposes: comms

External: N2YO · Heavens-Above · Gunter

§ Orbital elements

Epoch: 2026-09-12T17:48:55.533024Z

Period
109.80 min
Inclination
87.8974°
Eccentricity
0.0001945
Mean motion
13.11417936 rev/d
Perigee alt
1,216.2 km
Apogee alt
1,219.2 km
Semi-major
7,595.8 km
B*
8.8836e-4
RAAN
3.6557°
Arg perigee
94.7643°
Mean anomaly
265.3707°
Rev number
31,426

§ Raw data

ONEWEB-00921 45437U 20020P   26255.74230941  .00000328  00000+0  88836-3 0  99952 45437  87.8974   3.6557 0001945  94.7643 265.3707 13.11417936314268

JSON: /api/v1/satellites/45437 · /tle

For live sub-satellite position, see the globe view (requires WebGL).

§ Visibility from observer

Set your observer location to see the next 7 days of passes ≥ 10°. The values pass through the URL so the page stays shareable.

No JS? Fill the form by hand. The geolocation button needs JavaScript.